Location: Coupvray
(48.8929°N, 2.7967°E)
Time: 21:05:56
(UTC+00:00)

USA 267 - Pass Details

Date: 14 July 2020
Orbit: 1102 x 1106 km, 123.0° (Epoch: 12 August)

Event Time Altitude Azimuth Distance (km) Brightness Sun altitude
Exits shadow 00:32:10 30° 188° (S) 1,846 3.9 -19.0°
Maximum altitude 00:34:26 39° 228° (SW) 1,592 3.7 -18.9°
Drops below altitude 10° 00:40:29 10° 295° (WNW) 2,965 5.7 -18.7°
Sets 00:43:11 0° 304° (WNW) 3,926 6.4 -18.7°
